This demonstration page uses our WeatherBlox Daily Observations layout. Learn more.

Left ArrowRight Arrow

Hourly Observations for February 16, 2017

Temp ( °F °C ) Dew Point ( °F °C ) Humidity (%) Winds ( mph kmh ) Pressure ( in mb ) Visibility ( mi km ) Precip ( " mm )
12:53 am 00:53 Clear 42 5.6 27 -2.8 55 55 W 5 7 29.60 1003 10 16 0.00 0.00
1:53 am 01:53 Clear 37 2.8 29 -1.7 73 73 WSW 9 15 29.58 1002 10 16 0.00 0.00
2:53 am 02:53 Clear 40 4.4 29 -1.7 65 65 SW 14 22 29.57 1001 10 16 0.00 0.00
3:53 am 03:53 Clear 39 3.9 29 -1.7 67 67 SW 13 20 29.54 1000 10 16 0.00 0.00
4:53 am 04:53 Clear 47 8.3 28 -2.2 48 48 WSW 5 7 29.52 1000 10 16 0.00 0.00
5:53 am 05:53 Mostly Cloudy 43 6.1 30 -1.1 60 60 NW 7 11 29.54 1000 10 16 0.00 0.00
6:53 am 06:53 Clear 42 5.6 29 -1.7 60 60 VRB 5 7 29.51 999 10 16 0.00 0.00
7:53 am 07:53 Sunny 41 5 31 -0.6 67 67 SW 12 19 29.51 999 10 16 0.00 0.00
8:53 am 08:53 Sunny 44 6.7 31 -0.6 60 60 W 12 19 29.47 998 10 16 0.00 0.00
9:53 am 09:53 Sunny 46 7.8 32 0 58 58 W 7 11 29.44 997 10 16 0.00 0.00
10:53 am 10:53 Sunny 49 9.4 33 0.6 55 55 WSW 10 17 29.42 996 10 16 0.00 0.00
11:53 am 11:53 Sunny 58 14.4 39 3.9 50 50 SW 18 30 29.38 995 10 16 0.00 0.00
12:53 pm 12:53 Sunny 56 13.3 39 3.9 53 53 WSW 15 24 29.36 994 10 16 0.00 0.00
1:53 pm 13:53 Sunny 63 17.2 41 5 45 45 WSW 29 46 29.33 993 10 16 0.00 0.00
2:53 pm 14:53 Sunny 63 17.2 40 4.4 43 43 SW 23 37 29.32 993 10 16 0.00 0.00
3:53 pm 15:53 Sunny 62 16.7 40 4.4 44 44 SW 17 28 29.32 993 10 16 0.00 0.00
4:53 pm 16:53 Sunny 57 13.9 39 3.9 51 51 WSW 22 35 29.30 992 10 16 0.00 0.00
5:53 pm 17:53 Clear 51 10.6 38 3.3 61 61 SW 21 33 29.31 993 10 16 0.00 0.00
6:53 pm 18:53 Clear 46 7.8 37 2.8 71 71 SW 13 20 29.34 993 10 16 0.00 0.00
7:53 pm 19:53 Clear 44 6.7 35 1.7 71 71 SSW 6 9 29.34 994 10 16 0.00 0.00
8:53 pm 20:53 Clear 44 6.7 35 1.7 71 71 WSW 9 15 29.35 994 10 16 0.00 0.00
9:53 pm 21:53 Clear 45 7.2 35 1.7 68 68 SW 17 28 29.36 994 10 16 0.00 0.00
10:53 pm 22:53 Partly Cloudy 42 5.6 35 1.7 76 76 W 13 20 29.37 995 10 16 0.00 0.00
11:53 pm 23:53 Clear 41 5 34 1.1 76 76 WSW 16 26 29.36 994 10 16 0.00 0.00

Powered by AerisWeather